timestamp,surface_pressure_avg,surface_temp_avg,battery_voltage,lat,long
2019-08-05 00:00:00+00:00,283.183,19.01,12.97,47.84626,-54.09684
2019-08-05 00:10:00+00:00,293.983,19.03,12.89,47.84626,-54.09684
2019-08-05 00:20:00+00:00,301.6414,19.04,12.97,47.84626,-54.09684
2019-08-05 00:30:00+00:00,311.663,19.06,12.97,47.84626,-54.09684
2019-08-05 00:40:00+00:00,323.4396,19.07,12.97,47.84626,-54.09684
2019-08-05 00:50:00+00:00,333.7664,19.08,12.97,47.84626,-54.09684
2019-08-05 01:00:00+00:00,338.8112,19.07,12.97,47.84626,-54.09684
2019-08-05 01:10:00+00:00,344.5646,19.07,12.89,47.84626,-54.09684
2019-08-05 01:20:00+00:00,351.6863,19.08,12.97,47.84626,-54.09684
2019-08-05 01:30:00+00:00,356.963,19.08,12.97,47.84626,-54.09684
2019-08-05 01:40:00+00:00,361.0013,19.1,12.97,47.84626,-54.09684
2019-08-05 01:50:00+00:00,364.7346,19.1,12.97,47.84626,-54.09684
2019-08-05 02:00:00+00:00,370.5396,19.1,12.89,47.84626,-54.09684
2019-08-05 02:10:00+00:00,373.5396,19.1,12.81,47.84626,-54.09684
2019-08-05 02:20:00+00:00,372.7213,19.17,12.89,47.84626,-54.09684
2019-08-05 02:30:00+00:00,374.6496,19.2,12.97,47.84626,-54.09684
2019-08-05 02:40:00+00:00,380.1529,19.2,12.97,47.84626,-54.09684
2019-08-05 02:50:00+00:00,379.5596,19.2,12.97,47.84626,-54.09684
2019-08-05 03:00:00+00:00,375.553,19.2,12.89,47.84626,-54.09684
2019-08-05 03:10:00+00:00,374.9896,19.2,12.81,47.84626,-54.09684
2019-08-05 03:20:00+00:00,373.7913,19.19,12.89,47.84626,-54.09684
2019-08-05 03:30:00+00:00,369.1512,19.19,12.89,47.84626,-54.09684
2019-08-05 03:40:00+00:00,364.588,19.2,12.97,47.84626,-54.09684
2019-08-05 03:50:00+00:00,362.2413,19.25,12.97,47.84626,-54.09684
2019-08-05 04:00:00+00:00,359.3029,19.3,12.89,47.84626,-54.09684
2019-08-05 04:10:00+00:00,354.9396,19.3,12.81,47.84626,-54.09684
2019-08-05 04:20:00+00:00,347.1863,19.3,12.89,47.84626,-54.09684
2019-08-05 04:30:00+00:00,343.6896,19.32,12.89,47.84626,-54.09684
2019-08-05 04:40:00+00:00,341.238,19.3,12.97,47.84626,-54.09684
2019-08-05 04:50:00+00:00,331.5347,19.3,12.97,47.84626,-54.09684
2019-08-05 05:00:00+00:00,319.1714,19.3,12.89,47.84626,-54.09684
2019-08-05 05:10:00+00:00,309.5946,19.3,12.81,47.84626,-54.09684
2019-08-05 05:20:00+00:00,303.3964,19.3,12.89,47.84626,-54.09684
2019-08-05 05:30:00+00:00,289.2731,19.36,12.89,47.84626,-54.09684
2019-08-05 05:40:00+00:00,275.908,19.39,12.89,47.84626,-54.09684
2019-08-05 05:50:00+00:00,263.2714,19.4,12.89,47.84626,-54.09684
2019-08-05 06:00:00+00:00,254.5214,19.4,12.81,47.84626,-54.09684
2019-08-05 06:10:00+00:00,242.8981,19.4,12.81,47.84626,-54.09684
2019-08-05 06:20:00+00:00,232.7481,19.4,12.89,47.84626,-54.09684
2019-08-05 06:30:00+00:00,221.8398,19.4,12.89,47.84626,-54.09684
2019-08-05 06:40:00+00:00,212.1448,19.49,12.89,47.84626,-54.09684
2019-08-05 06:50:00+00:00,207.3414,19.5,12.89,47.84626,-54.09684
2019-08-05 07:00:00+00:00,199.3481,19.5,12.81,47.84626,-54.09684
2019-08-05 07:10:00+00:00,190.0365,19.5,12.73,47.84626,-54.09684
2019-08-05 07:20:00+00:00,187.6664,19.5,12.81,47.84626,-54.09684
2019-08-05 07:30:00+00:00,187.0165,19.5,12.81,47.84626,-54.09684
2019-08-05 07:40:00+00:00,184.6281,19.48,12.89,47.84626,-54.09684
2019-08-05 07:50:00+00:00,181.3248,19.41,12.89,47.84626,-54.09684
2019-08-05 08:00:00+00:00,180.0981,19.4,12.81,47.84626,-54.09684
2019-08-05 08:10:00+00:00,179.4482,19.4,12.73,47.84626,-54.09684
2019-08-05 08:20:00+00:00,176.5498,19.4,12.81,47.84626,-54.09684
2019-08-05 08:30:00+00:00,177.9165,19.4,12.81,47.84626,-54.09684
2019-08-05 08:40:00+00:00,184.9265,19.4,12.81,47.84626,-54.09684
2019-08-05 08:50:00+00:00,187.3064,19.42,12.81,47.84626,-54.09684
2019-08-05 09:00:00+00:00,187.4015,19.48,12.81,47.84626,-54.09684
2019-08-05 09:10:00+00:00,187.4598,19.49,12.73,47.84626,-54.09684
2019-08-05 09:20:00+00:00,190.0032,19.41,12.81,47.84626,-54.09684
2019-08-05 09:30:00+00:00,196.4798,19.4,12.81,47.84626,-54.09684
2019-08-05 09:40:00+00:00,201.1381,19.4,12.81,47.84626,-54.09684
2019-08-05 09:50:00+00:00,205.0814,19.45,12.81,47.84626,-54.09684
2019-08-05 10:00:00+00:00,209.1314,19.5,12.73,47.84626,-54.09684
2019-08-05 10:10:00+00:00,211.9847,19.5,12.73,47.84626,-54.09684
2019-08-05 10:20:00+00:00,216.4797,19.54,12.81,47.84626,-54.09684
2019-08-05 10:30:00+00:00,217.3281,19.5,12.81,47.84626,-54.09684
2019-08-05 10:40:00+00:00,218.7864,19.5,12.81,47.84626,-54.09684
2019-08-05 10:50:00+00:00,223.4865,19.4,12.81,47.84626,-54.09684
2019-08-05 11:00:00+00:00,223.8131,19.4,12.73,47.84626,-54.09684
2019-08-05 11:10:00+00:00,228.1297,19.3,12.73,47.84626,-54.09684
2019-08-05 11:20:00+00:00,238.1997,19.3,12.81,47.84626,-54.09684
2019-08-05 11:30:00+00:00,244.8564,19.3,12.81,47.84626,-54.09684
2019-08-05 11:40:00+00:00,247.7081,19.32,12.81,47.84626,-54.09684
2019-08-05 11:50:00+00:00,253.7298,19.4,12.81,47.84626,-54.09684
2019-08-05 12:00:00+00:00,264.1947,19.48,12.81,47.84626,-54.09684
2019-08-05 12:10:00+00:00,273.2897,19.47,12.73,47.84626,-54.09684
2019-08-05 12:20:00+00:00,273.8497,19.47,12.81,47.84626,-54.09684
2019-08-05 12:30:00+00:00,276.5098,19.46,12.81,47.84626,-54.09684
2019-08-05 12:40:00+00:00,288.3713,19.4,12.89,47.84626,-54.09684
2019-08-05 12:50:00+00:00,299.0897,19.4,12.89,47.84626,-54.09684
2019-08-05 13:00:00+00:00,301.903,19.4,12.89,47.84626,-54.09684
2019-08-05 13:10:00+00:00,312.1864,19.4,12.81,47.84626,-54.09684
2019-08-05 13:20:00+00:00,328.3864,19.4,12.89,47.84626,-54.09684
2019-08-05 13:30:00+00:00,337.3246,19.4,12.89,47.84626,-54.09684
2019-08-05 13:40:00+00:00,343.6163,19.4,12.97,47.84626,-54.09684
2019-08-05 13:50:00+00:00,354.1813,19.39,12.97,47.84626,-54.09684
2019-08-05 14:00:00+00:00,359.1913,19.36,12.97,47.84626,-54.09684
2019-08-05 14:10:00+00:00,356.5062,19.32,12.89,47.84626,-54.09684
2019-08-05 14:20:00+00:00,355.5496,19.2,12.97,47.84626,-54.09684
2019-08-05 14:30:00+00:00,360.8146,19.1,12.97,47.84626,-54.09684
2019-08-05 14:40:00+00:00,363.638,19.1,12.97,47.84626,-54.09684
2019-08-05 14:50:00+00:00,363.5096,19.13,13.05,47.84626,-54.09684
2019-08-05 15:00:00+00:00,363.4363,19.2,13.13,47.84626,-54.09684
2019-08-05 15:10:00+00:00,366.4946,19.2,13.13,47.84626,-54.09684
2019-08-05 15:20:00+00:00,367.3096,19.21,13.21,47.84626,-54.09684
2019-08-05 15:30:00+00:00,364.8529,19.29,13.21,47.84626,-54.09684
2019-08-05 15:40:00+00:00,362.7779,19.3,13.21,47.84626,-54.09684
2019-08-05 15:50:00+00:00,360.2746,19.3,13.29,47.84626,-54.09684
2019-08-05 16:00:00+00:00,359.5996,19.3,13.21,47.84626,-54.09684
2019-08-05 16:10:00+00:00,357.7297,19.3,13.05,47.84626,-54.09684
2019-08-05 16:20:00+00:00,352.1462,19.3,13.13,47.84626,-54.09684
2019-08-05 16:30:00+00:00,345.2197,19.19,13.21,47.84626,-54.09684
2019-08-05 16:40:00+00:00,341.278,19.06,13.29,47.84626,-54.09684
2019-08-05 16:50:00+00:00,335.4812,19.19,13.37,47.84626,-54.09684
2019-08-05 17:00:00+00:00,327.0746,19.2,13.29,47.84626,-54.09684
2019-08-05 17:10:00+00:00,322.8079,19.21,13.21,47.84626,-54.09684
2019-08-05 17:20:00+00:00,316.8213,19.29,13.29,47.84626,-54.09684
2019-08-05 17:30:00+00:00,303.1214,19.3,13.29,47.84626,-54.09684
2019-08-05 17:40:00+00:00,294.0647,19.3,13.29,47.84626,-54.09684
2019-08-05 17:50:00+00:00,290.3064,19.3,13.37,47.84626,-54.09684
2019-08-05 18:00:00+00:00,283.4781,19.3,13.29,47.84626,-54.09684
2019-08-05 18:10:00+00:00,268.3864,19.3,13.29,47.84626,-54.09684
2019-08-05 18:20:00+00:00,257.3031,19.31,13.29,47.84626,-54.09684
2019-08-05 18:30:00+00:00,251.0214,19.3,13.37,47.84626,-54.09684
2019-08-05 18:40:00+00:00,239.6165,19.3,13.37,47.84626,-54.09684
2019-08-05 18:50:00+00:00,223.9931,19.3,13.37,47.84626,-54.09684
2019-08-05 19:00:00+00:00,215.2348,19.3,13.29,47.84626,-54.09684
2019-08-05 19:10:00+00:00,213.0064,19.3,13.29,47.84626,-54.09684
2019-08-05 19:20:00+00:00,206.8031,19.3,13.37,47.84626,-54.09684
2019-08-05 19:30:00+00:00,200.4265,19.3,13.37,47.84626,-54.09684
2019-08-05 19:40:00+00:00,200.2481,19.33,13.37,47.84626,-54.09684
2019-08-05 19:50:00+00:00,199.8365,19.35,13.37,47.84626,-54.09684
2019-08-05 20:00:00+00:00,194.5914,19.36,13.29,47.84626,-54.09684
2019-08-05 20:10:00+00:00,190.7431,19.3,13.21,47.84626,-54.09684
2019-08-05 20:20:00+00:00,190.4965,19.3,13.29,47.84626,-54.09684
2019-08-05 20:30:00+00:00,187.0481,19.3,13.29,47.84626,-54.09684
2019-08-05 20:40:00+00:00,185.0048,19.3,13.37,47.84626,-54.09684
2019-08-05 20:50:00+00:00,186.4765,19.3,13.37,47.84626,-54.09684
2019-08-05 21:00:00+00:00,188.1448,19.3,13.29,47.84626,-54.09684
2019-08-05 21:10:00+00:00,189.4232,19.3,13.21,47.84626,-54.09684
2019-08-05 21:20:00+00:00,190.6481,19.3,13.29,47.84626,-54.09684
2019-08-05 21:30:00+00:00,195.3748,19.3,13.29,47.84626,-54.09684
2019-08-05 21:40:00+00:00,201.1731,19.28,13.29,47.84626,-54.09684
2019-08-05 21:50:00+00:00,204.2898,19.23,13.29,47.84626,-54.09684
2019-08-05 22:00:00+00:00,206.5781,19.2,13.13,47.84626,-54.09684
2019-08-05 22:10:00+00:00,211.1414,19.2,13.05,47.84626,-54.09684
2019-08-05 22:20:00+00:00,214.2432,19.2,13.05,47.84626,-54.09684
2019-08-05 22:30:00+00:00,213.4298,19.2,13.05,47.84626,-54.09684
2019-08-05 22:40:00+00:00,217.2514,19.2,13.05,47.84626,-54.09684
2019-08-05 22:50:00+00:00,223.1681,19.2,13.05,47.84626,-54.09684
2019-08-05 23:00:00+00:00,225.0331,19.2,12.97,47.84626,-54.09684
2019-08-05 23:10:00+00:00,227.7597,19.2,12.89,47.84626,-54.09684
2019-08-05 23:20:00+00:00,231.4415,19.19,12.97,47.84626,-54.09684
2019-08-05 23:30:00+00:00,235.3165,19.19,12.97,47.84626,-54.09684
2019-08-05 23:40:00+00:00,239.9314,19.19,12.97,47.84626,-54.09684
2019-08-05 23:50:00+00:00,245.4498,19.18,12.97,47.84626,-54.09684
